User: anonymous   Login
Location: Napier
(39.4830°S, 176.9170°E)
Time: 21:38:39
(UTC+13:00)
Language:

SPOT 1/Viking Rocket - Orbit

View from above orbital plane
View from above orbital plane
View from above satellite
View from above satellite

Ground track
Ground track

The orbit data is extracted from the following two-line orbital elements,

1 16615U 86019C   19321.81004972 +.00000027 +00000-0 +26417-4 0  9993
2 16615 098.5068 026.7421 0010955 323.7191 146.2641 14.31773253765856
Epoch (UTC): 17 November 2019 19:26:28
Eccentricity: 0.0010955
inclination: 98.5068°
perigee height: 778 km
apogee height: 793 km
right ascension of ascending node: 26.7421°
argument of perigee: 323.7191°
revolutions per day: 14.31773253
mean anomaly at epoch: 146.2641°
orbit number at epoch: 76585

The dashed part of the orbit path shows where the satellite is in the earth's shadow,  

DLR